AFL805 LTAI-URMM

Flight info

Callsign AFL805
Flight time 1h 57m
Altitude 34000
Route HISAR1K/18L HISAR UW77 HALIL/N0458F360 UW77 BAG/N0457F350 UW71 CRM UG901 BALUM/K0850F350 G901 KEPOL G487 ERSAR B967 ABELA
Aircraft A320/M-SDE3FGHIRWY/LB1

Departure

Time 2026-05-05 15:00
Airport Antalya International Airport (LTAI)

Arrival

Time 2026-05-05 16:58
Airport Mineralnye Vody Airport (URMM)
Time Latitude Longitude Altitude Speed Heading
2026-05-05 14:43 36.89717 30.80437 192 ft 0 kts 96°
2026-05-05 14:51 36.89719 30.80410 195 ft 3 kts 96°
2026-05-05 14:51 36.89721 30.80388 203 ft 2 kts 96°
2026-05-05 14:53 36.89722 30.80385 205 ft 1 kts 96°
2026-05-05 14:53 36.89722 30.80378 204 ft 1 kts 96°
2026-05-05 14:53 36.89723 30.80372 207 ft 1 kts 96°
2026-05-05 14:53 36.89724 30.80360 207 ft 2 kts 102°
2026-05-05 14:54 36.89728 30.80343 194 ft 2 kts 115°
2026-05-05 14:54 36.89734 30.80330 204 ft 2 kts 135°
2026-05-05 14:54 36.89744 30.80319 195 ft 2 kts 172°
2026-05-05 14:54 36.89747 30.80319 194 ft 0 kts 176°
2026-05-05 14:55 36.89704 30.80315 198 ft 10 kts 186°
2026-05-05 14:55 36.89632 30.80307 198 ft 11 kts 179°
2026-05-05 14:56 36.89586 30.80373 196 ft 11 kts 104°
2026-05-05 14:56 36.89577 30.80474 198 ft 12 kts 95°
2026-05-05 14:56 36.89565 30.80589 192 ft 16 kts 96°
2026-05-05 14:56 36.89609 30.80692 202 ft 14 kts 19°
2026-05-05 14:57 36.89713 30.80712 198 ft 21 kts
2026-05-05 14:57 36.89891 30.80736 192 ft 26 kts
2026-05-05 14:57 36.90066 30.80760 196 ft 24 kts
2026-05-05 14:57 36.90223 30.80782 194 ft 22 kts
2026-05-05 14:58 36.90369 30.80803 193 ft 20 kts
2026-05-05 14:58 36.90498 30.80821 191 ft 18 kts
2026-05-05 14:58 36.90641 30.80839 191 ft 25 kts
2026-05-05 14:58 36.90812 30.80862 197 ft 24 kts
2026-05-05 14:59 36.90950 30.80884 195 ft 14 kts 20°
2026-05-05 14:59 36.90981 30.80981 190 ft 15 kts 94°
2026-05-05 14:59 36.90963 30.81106 196 ft 9 kts 143°
2026-05-05 14:59 36.90917 30.81115 199 ft 5 kts 186°
2026-05-05 15:00 36.90798 30.81092 195 ft 45 kts 189°
2026-05-05 15:00 36.90495 30.81048 204 ft 88 kts 186°
2026-05-05 15:00 36.89289 30.80889 256 ft 164 kts 186°
2026-05-05 15:00 36.88128 30.80762 982 ft 171 kts 185°
2026-05-05 15:01 36.86909 30.80655 1773 ft 182 kts 184°
2026-05-05 15:01 36.85590 30.80693 2282 ft 199 kts 172°
2026-05-05 15:01 36.84259 30.81001 2590 ft 220 kts 167°
2026-05-05 15:01 36.82730 30.81413 3220 ft 228 kts 168°
2026-05-05 15:02 36.81154 30.81813 3882 ft 234 kts 169°
2026-05-05 15:02 36.79558 30.82301 4595 ft 239 kts 155°
2026-05-05 15:02 36.78005 30.83287 4964 ft 262 kts 151°
2026-05-05 15:02 36.76325 30.84366 5402 ft 281 kts 150°
2026-05-05 15:03 36.74829 30.85926 6123 ft 284 kts 120°
2026-05-05 15:03 36.73928 30.88130 6915 ft 286 kts 107°
2026-05-05 15:03 36.73647 30.90534 7653 ft 283 kts 82°
2026-05-05 15:03 36.73789 30.93017 8430 ft 289 kts 88°
2026-05-05 15:04 36.73616 30.95522 9224 ft 294 kts 95°
2026-05-05 15:04 36.73295 30.98071 9997 ft 299 kts 97°
2026-05-05 15:04 36.72946 31.00667 10489 ft 313 kts 97°
2026-05-05 15:04 36.72614 31.03212 10675 ft 333 kts 97°
2026-05-05 15:05 36.73313 31.08966 11077 ft 342 kts 56°
2026-05-05 15:05 36.74863 31.11107 11233 ft 331 kts 34°
2026-05-05 15:05 36.76908 31.12416 11497 ft 330 kts 15°
2026-05-05 15:06 36.78952 31.12895 11724 ft 329 kts
2026-05-05 15:06 36.81281 31.13223 11930 ft 331 kts
2026-05-05 15:06 36.83558 31.13783 12344 ft 337 kts 11°
2026-05-05 15:06 36.85846 31.14449 13113 ft 339 kts 11°
2026-05-05 15:07 36.88142 31.15161 13838 ft 342 kts 12°
2026-05-05 15:07 36.90473 31.15907 14427 ft 347 kts 12°
2026-05-05 15:07 36.92820 31.16659 15037 ft 350 kts 12°
2026-05-05 15:07 36.95196 31.17414 15658 ft 353 kts 12°
2026-05-05 15:08 36.97585 31.18165 16269 ft 356 kts 12°
2026-05-05 15:08 36.99676 31.18817 16792 ft 359 kts 12°
2026-05-05 15:08 37.02122 31.19581 17406 ft 362 kts 11°
2026-05-05 15:08 37.04575 31.20343 18026 ft 364 kts 11°
2026-05-05 15:09 37.07050 31.21112 18566 ft 367 kts 11°
2026-05-05 15:09 37.09535 31.21883 19086 ft 370 kts 11°
2026-05-05 15:09 37.12036 31.22656 19631 ft 371 kts 11°
2026-05-05 15:09 37.14554 31.23439 20161 ft 374 kts 10°
2026-05-05 15:10 37.17073 31.24225 20684 ft 376 kts 10°
2026-05-05 15:10 37.19630 31.25027 21181 ft 378 kts 10°
2026-05-05 15:10 37.22195 31.25831 21702 ft 381 kts
2026-05-05 15:10 37.24768 31.26635 22214 ft 383 kts
2026-05-05 15:11 37.27323 31.27434 22710 ft 385 kts
2026-05-05 15:11 37.29743 31.28190 23155 ft 388 kts
2026-05-05 15:11 37.32203 31.28960 23607 ft 390 kts
2026-05-05 15:11 37.34848 31.29789 24001 ft 392 kts
2026-05-05 15:12 37.37498 31.30633 24395 ft 395 kts
2026-05-05 15:12 37.40170 31.31487 24742 ft 397 kts
2026-05-05 15:12 37.42852 31.32307 25107 ft 398 kts
2026-05-05 15:12 37.45538 31.33134 25475 ft 401 kts
2026-05-05 15:13 37.48266 31.33989 25813 ft 403 kts
2026-05-05 15:13 37.50989 31.34853 26161 ft 406 kts
2026-05-05 15:13 37.53741 31.35731 26480 ft 408 kts
2026-05-05 15:13 37.56214 31.36517 26814 ft 409 kts
2026-05-05 15:14 37.58982 31.37395 27160 ft 411 kts
2026-05-05 15:14 37.61760 31.38270 27511 ft 413 kts
2026-05-05 15:14 37.64564 31.39150 27852 ft 415 kts
2026-05-05 15:14 37.67375 31.40035 28210 ft 417 kts
2026-05-05 15:15 37.70188 31.40922 28536 ft 419 kts
2026-05-05 15:15 37.73025 31.41821 28863 ft 421 kts
2026-05-05 15:15 37.75879 31.42729 29187 ft 423 kts
2026-05-05 15:15 37.78739 31.43639 29498 ft 426 kts
2026-05-05 15:16 37.81625 31.44560 29804 ft 428 kts
2026-05-05 15:16 37.84517 31.45481 30080 ft 430 kts
2026-05-05 15:16 37.87420 31.46403 30335 ft 431 kts
2026-05-05 15:16 37.90334 31.47326 30578 ft 433 kts
2026-05-05 15:17 37.93261 31.48252 30833 ft 434 kts
2026-05-05 15:17 37.96176 31.49175 31083 ft 435 kts
2026-05-05 15:17 37.98894 31.50034 31407 ft 433 kts
2026-05-05 15:17 38.01827 31.50933 31768 ft 432 kts 10°
2026-05-05 15:18 38.04743 31.51869 32131 ft 431 kts 10°
2026-05-05 15:18 38.07637 31.52817 32500 ft 430 kts 11°
2026-05-05 15:18 38.10524 31.53798 32867 ft 430 kts 14°
2026-05-05 15:18 38.13307 31.55201 33220 ft 433 kts 22°
2026-05-05 15:19 38.15978 31.56940 33569 ft 432 kts 23°
2026-05-05 15:19 38.18675 31.58664 33939 ft 431 kts 22°
2026-05-05 15:19 38.21359 31.60344 34052 ft 427 kts 22°
2026-05-05 15:20 38.26543 31.63560 34042 ft 419 kts 22°
2026-05-05 15:20 38.31762 31.66827 34039 ft 418 kts 22°
2026-05-05 15:21 38.36965 31.70109 34042 ft 417 kts 22°
2026-05-05 15:21 38.42163 31.73403 34043 ft 417 kts 22°
2026-05-05 15:22 38.47344 31.76695 34049 ft 416 kts 22°
2026-05-05 15:22 38.52487 31.79963 34058 ft 416 kts 22°
2026-05-05 15:23 38.56826 31.82723 34066 ft 416 kts 22°
2026-05-05 15:23 38.61817 31.85905 34063 ft 415 kts 22°
2026-05-05 15:24 38.66968 31.89197 34068 ft 414 kts 22°
2026-05-05 15:24 38.72115 31.92494 34064 ft 413 kts 22°
2026-05-05 15:25 38.77036 31.95653 34059 ft 412 kts 22°
2026-05-05 15:25 38.82188 31.98958 34038 ft 419 kts 22°
2026-05-05 15:26 38.86793 32.01903 34035 ft 430 kts 23°
2026-05-05 15:26 38.92078 32.05277 34038 ft 439 kts 22°
2026-05-05 15:27 38.97586 32.08820 34032 ft 446 kts 22°
2026-05-05 15:27 39.03142 32.12420 34030 ft 447 kts 22°
2026-05-05 15:28 39.08694 32.16027 34027 ft 447 kts 22°
2026-05-05 15:28 39.14163 32.19571 34026 ft 446 kts 22°
2026-05-05 15:29 39.19705 32.23162 34021 ft 446 kts 22°
2026-05-05 15:29 39.25232 32.26758 34021 ft 446 kts 22°
2026-05-05 15:30 39.30089 32.29924 34015 ft 446 kts 22°
2026-05-05 15:30 39.34419 32.33190 33984 ft 447 kts 26°
2026-05-05 15:31 39.39945 32.36692 34001 ft 444 kts 20°
2026-05-05 15:31 39.44166 32.39280 34010 ft 445 kts 21°
2026-05-05 15:32 39.49744 32.42808 34012 ft 446 kts 22°
2026-05-05 15:32 39.55105 32.46318 34016 ft 446 kts 24°
2026-05-05 15:33 39.60590 32.49945 33987 ft 447 kts 23°
2026-05-05 15:33 39.66115 32.53646 34022 ft 447 kts 23°
2026-05-05 15:34 39.71636 32.57340 34020 ft 447 kts 23°
2026-05-05 15:34 39.77143 32.61004 33998 ft 446 kts 23°
2026-05-05 15:35 39.82675 32.64685 33994 ft 446 kts 23°
2026-05-05 15:35 39.87300 32.67772 33997 ft 446 kts 23°
2026-05-05 15:36 39.88790 32.68817 33564 ft 446 kts 32°
2026-05-05 15:37 39.89976 32.72157 28959 ft 519 kts 94°
2026-05-05 15:37 39.88706 32.76935 23279 ft 585 kts 112°
2026-05-05 15:37 39.86879 32.81975 18557 ft 637 kts 114°
2026-05-05 15:37 39.85054 32.87082 16812 ft 602 kts 113°
2026-05-05 15:38 39.83382 32.91255 20864 ft 451 kts 117°
2026-05-05 15:38 39.82113 32.94597 24760 ft 378 kts 103°
2026-05-05 15:38 39.81718 32.97468 26822 ft 323 kts 79°
2026-05-05 15:38 39.82066 32.99820 28213 ft 273 kts 56°
2026-05-05 15:39 39.83058 33.01734 28691 ft 258 kts 40°
2026-05-05 15:39 39.84297 33.03656 28147 ft 290 kts 43°
2026-05-05 15:39 39.85663 33.05703 28235 ft 301 kts 41°
2026-05-05 15:39 39.87077 33.07733 28401 ft 310 kts 41°
2026-05-05 15:40 39.88559 33.09831 28542 ft 319 kts 41°
2026-05-05 15:40 39.90081 33.11979 28686 ft 329 kts 41°
2026-05-05 15:40 39.91376 33.13809 28809 ft 336 kts 42°
2026-05-05 15:40 39.92860 33.15890 28934 ft 343 kts 41°
2026-05-05 15:41 39.94498 33.18209 29082 ft 352 kts 42°
2026-05-05 15:41 39.96169 33.20618 29232 ft 361 kts 43°
2026-05-05 15:41 39.97857 33.23071 29385 ft 369 kts 43°
2026-05-05 15:41 39.99588 33.25589 29521 ft 377 kts 43°
2026-05-05 15:42 40.01357 33.28158 29666 ft 384 kts 43°
2026-05-05 15:42 40.03113 33.30704 29812 ft 390 kts 43°
2026-05-05 15:42 40.04874 33.33257 29958 ft 396 kts 43°
2026-05-05 15:42 40.06122 33.35666 29912 ft 411 kts 57°
2026-05-05 15:43 40.07427 33.39028 30024 ft 414 kts 52°
2026-05-05 15:43 40.09228 33.41908 30159 ft 410 kts 40°
2026-05-05 15:43 40.11384 33.44430 30274 ft 412 kts 35°
2026-05-05 15:43 40.13610 33.46819 30395 ft 417 kts 36°
2026-05-05 15:44 40.15819 33.49316 30522 ft 423 kts 38°
2026-05-05 15:44 40.17962 33.52003 30649 ft 429 kts 41°
2026-05-05 15:44 40.20016 33.54844 30781 ft 434 kts 43°
2026-05-05 15:44 40.22031 33.57821 30898 ft 438 kts 44°
2026-05-05 15:45 40.24028 33.60859 31026 ft 442 kts 45°
2026-05-05 15:45 40.26037 33.63924 31158 ft 446 kts 45°
2026-05-05 15:45 40.28078 33.67002 31309 ft 448 kts 44°
2026-05-05 15:45 40.30142 33.70065 31523 ft 449 kts 44°
2026-05-05 15:46 40.32222 33.73117 31764 ft 450 kts 44°
2026-05-05 15:46 40.34319 33.76176 31984 ft 451 kts 44°
2026-05-05 15:46 40.36319 33.79091 32220 ft 452 kts 44°
2026-05-05 15:46 40.38417 33.82157 32450 ft 452 kts 44°
2026-05-05 15:47 40.40519 33.85235 32675 ft 453 kts 44°
2026-05-05 15:47 40.41907 33.87270 32827 ft 454 kts 44°
2026-05-05 15:47 40.44733 33.91422 33107 ft 456 kts 44°
2026-05-05 15:47 40.46843 33.94530 33354 ft 457 kts 45°
2026-05-05 15:48 40.48964 33.97658 33572 ft 458 kts 45°
2026-05-05 15:48 40.51079 34.00782 33790 ft 459 kts 45°
2026-05-05 15:48 40.53202 34.03928 33944 ft 460 kts 45°
2026-05-05 15:49 40.57443 34.10224 33970 ft 461 kts 45°
2026-05-05 15:49 40.61705 34.16553 33974 ft 462 kts 45°
2026-05-05 15:50 40.65992 34.22922 33975 ft 462 kts 46°
2026-05-05 15:50 40.70258 34.29260 33974 ft 463 kts 46°
2026-05-05 15:51 40.74488 34.35562 33975 ft 463 kts 46°
2026-05-05 15:51 40.78767 34.41981 33973 ft 464 kts 46°
2026-05-05 15:52 40.83023 34.48391 33978 ft 464 kts 46°
2026-05-05 15:52 40.87275 34.54789 33979 ft 465 kts 46°
2026-05-05 15:53 40.91562 34.61229 33977 ft 465 kts 47°
2026-05-05 15:53 40.95799 34.67611 33978 ft 466 kts 47°
2026-05-05 15:54 41.00094 34.74105 33977 ft 466 kts 47°
2026-05-05 15:54 41.04361 34.80580 33976 ft 466 kts 47°
2026-05-05 15:55 41.08621 34.87052 33982 ft 467 kts 47°
2026-05-05 15:55 41.12884 34.93547 33978 ft 467 kts 47°
2026-05-05 15:56 41.17155 35.00057 33983 ft 468 kts 47°
2026-05-05 15:56 41.21424 35.06578 33992 ft 468 kts 48°
2026-05-05 15:57 41.25689 35.13133 33999 ft 469 kts 48°
2026-05-05 15:57 41.29948 35.19686 33998 ft 469 kts 48°
2026-05-05 15:58 41.34212 35.26232 34009 ft 469 kts 48°
2026-05-05 15:58 41.38479 35.32813 34018 ft 469 kts 48°
2026-05-05 15:59 41.42741 35.39401 34028 ft 470 kts 48°
2026-05-05 15:59 41.46245 35.44822 34029 ft 470 kts 48°
2026-05-05 16:00 41.50503 35.51422 34029 ft 470 kts 49°
2026-05-05 16:00 41.54759 35.58049 34031 ft 470 kts 49°
2026-05-05 16:01 41.59012 35.64685 34037 ft 470 kts 49°
2026-05-05 16:01 41.63269 35.71333 34031 ft 470 kts 49°
2026-05-05 16:02 41.67493 35.77943 34032 ft 470 kts 49°
2026-05-05 16:02 41.70936 35.84010 34017 ft 470 kts 52°
2026-05-05 16:03 41.75165 35.90660 34042 ft 471 kts 47°
2026-05-05 16:03 41.79632 35.97104 34041 ft 471 kts 47°
2026-05-05 16:04 41.83963 36.03696 34035 ft 472 kts 49°
2026-05-05 16:04 41.88154 36.10430 34065 ft 470 kts 50°
2026-05-05 16:05 41.92348 36.17183 34036 ft 471 kts 50°
2026-05-05 16:05 41.96576 36.23906 34029 ft 471 kts 50°
2026-05-05 16:06 42.00815 36.30629 34030 ft 471 kts 50°
2026-05-05 16:06 42.04891 36.37137 34028 ft 471 kts 50°
2026-05-05 16:07 42.09103 36.43889 34024 ft 471 kts 50°
2026-05-05 16:07 42.13315 36.50643 34022 ft 472 kts 50°
2026-05-05 16:08 42.17531 36.57428 34022 ft 472 kts 51°
2026-05-05 16:08 42.21747 36.64217 34018 ft 472 kts 51°
2026-05-05 16:09 42.25968 36.71026 34020 ft 473 kts 51°
2026-05-05 16:09 42.30182 36.77848 34027 ft 473 kts 51°
2026-05-05 16:10 42.34398 36.84690 34027 ft 474 kts 51°
2026-05-05 16:10 42.38527 36.91344 34028 ft 474 kts 51°
2026-05-05 16:11 42.42733 36.98229 34030 ft 474 kts 52°
2026-05-05 16:12 42.51115 37.11989 34030 ft 473 kts 52°
2026-05-05 16:13 42.60201 37.29543 33721 ft 462 kts 77°
2026-05-05 16:13 42.61201 37.33695 33917 ft 466 kts 65°
2026-05-05 16:13 42.62885 37.37356 34038 ft 472 kts 52°
2026-05-05 16:14 42.71698 37.50697 34051 ft 475 kts 50°
2026-05-05 16:15 42.80439 37.63941 34041 ft 473 kts 50°
2026-05-05 16:16 42.89191 37.77236 34026 ft 471 kts 50°
2026-05-05 16:17 42.95735 37.87210 34023 ft 471 kts 50°
2026-05-05 16:18 43.01820 37.96630 34002 ft 467 kts 56°
2026-05-05 16:18 43.04882 38.04414 34018 ft 465 kts 69°
2026-05-05 16:19 43.06121 38.08491 34022 ft 465 kts 69°
2026-05-05 16:19 43.09721 38.20809 34020 ft 465 kts 70°
2026-05-05 16:20 43.14513 38.36890 34020 ft 466 kts 67°
2026-05-05 16:22 43.20400 38.57471 34012 ft 465 kts 71°
2026-05-05 16:23 43.25163 38.74023 34016 ft 465 kts 71°
2026-05-05 16:23 43.28606 38.86033 34013 ft 465 kts 72°
2026-05-05 16:24 43.30918 38.94330 34012 ft 465 kts 72°
2026-05-05 16:25 43.34393 39.06781 34012 ft 466 kts 72°
2026-05-05 16:25 43.38258 39.19045 34009 ft 467 kts 68°
2026-05-05 16:26 43.43861 39.35099 34001 ft 467 kts 68°
2026-05-05 16:27 43.46543 39.43103 34017 ft 467 kts 69°
2026-05-05 16:27 43.49238 39.51235 34005 ft 467 kts 69°
2026-05-05 16:28 43.51909 39.59290 33998 ft 467 kts 69°
2026-05-05 16:28 43.54611 39.67415 33996 ft 467 kts 69°
2026-05-05 16:29 43.57309 39.75556 33981 ft 467 kts 69°
2026-05-05 16:29 43.59997 39.83748 33983 ft 467 kts 69°
2026-05-05 16:30 43.62438 39.91217 33982 ft 468 kts 69°
2026-05-05 16:30 43.64712 39.97928 33987 ft 472 kts 65°
2026-05-05 16:31 43.67577 40.06078 33985 ft 470 kts 69°
2026-05-05 16:31 43.69493 40.13082 33988 ft 466 kts 77°
2026-05-05 16:32 43.71802 40.21423 33987 ft 471 kts 64°
2026-05-05 16:32 43.74899 40.29369 33985 ft 469 kts 67°
2026-05-05 16:33 43.77625 40.37549 33995 ft 467 kts 70°
2026-05-05 16:33 43.80156 40.45826 33995 ft 466 kts 70°
2026-05-05 16:34 43.82710 40.54044 34009 ft 466 kts 70°
2026-05-05 16:34 43.85334 40.62252 34022 ft 466 kts 69°
2026-05-05 16:35 43.87940 40.70382 34005 ft 464 kts 69°
2026-05-05 16:35 43.89221 40.74409 33836 ft 450 kts 70°
2026-05-05 16:35 43.90455 40.78344 33560 ft 439 kts 70°
2026-05-05 16:36 43.91652 40.82188 33272 ft 429 kts 70°
2026-05-05 16:36 43.92814 40.85944 32988 ft 418 kts 70°
2026-05-05 16:36 43.93764 40.89025 32775 ft 412 kts 70°
2026-05-05 16:36 43.94887 40.92661 32273 ft 408 kts 70°
2026-05-05 16:37 43.96001 40.96266 31762 ft 405 kts 70°
2026-05-05 16:37 43.96735 40.98641 31377 ft 404 kts 70°
2026-05-05 16:37 43.98101 41.03053 30855 ft 398 kts 70°
2026-05-05 16:37 43.99185 41.06572 30368 ft 395 kts 70°
2026-05-05 16:38 44.00260 41.10063 29865 ft 392 kts 70°
2026-05-05 16:38 44.00967 41.12359 29563 ft 389 kts 70°
2026-05-05 16:38 44.01888 41.15349 29186 ft 384 kts 70°
2026-05-05 16:38 44.03276 41.19888 28594 ft 377 kts 70°
2026-05-05 16:39 44.04298 41.23232 28157 ft 373 kts 70°
2026-05-05 16:39 44.04965 41.25414 27891 ft 370 kts 70°
2026-05-05 16:39 44.05963 41.28678 27478 ft 365 kts 70°
2026-05-05 16:39 44.06950 41.31909 27066 ft 361 kts 70°
2026-05-05 16:40 44.07937 41.35154 26655 ft 358 kts 70°
2026-05-05 16:40 44.08887 41.38284 26265 ft 354 kts 70°
2026-05-05 16:40 44.09855 41.41468 25858 ft 351 kts 70°
2026-05-05 16:40 44.10790 41.44541 25449 ft 348 kts 70°
2026-05-05 16:41 44.11628 41.47713 25035 ft 343 kts 78°
2026-05-05 16:41 44.12034 41.50957 24603 ft 338 kts 89°
2026-05-05 16:41 44.12171 41.54171 24131 ft 339 kts 85°
2026-05-05 16:41 44.12454 41.57101 23768 ft 337 kts 85°
2026-05-05 16:42 44.12655 41.59678 23385 ft 336 kts 87°
2026-05-05 16:42 44.13067 41.62838 22875 ft 339 kts 72°
2026-05-05 16:42 44.14358 41.65653 22334 ft 346 kts 48°
2026-05-05 16:42 44.16003 41.68013 21963 ft 340 kts 54°
2026-05-05 16:43 44.17150 41.70847 21245 ft 342 kts 74°
2026-05-05 16:43 44.17565 41.73630 20874 ft 334 kts 86°
2026-05-05 16:43 44.17779 41.76792 20474 ft 332 kts 87°
2026-05-05 16:43 44.18007 41.79995 20060 ft 331 kts 86°
2026-05-05 16:44 44.18239 41.83175 19638 ft 330 kts 86°
2026-05-05 16:44 44.18473 41.86364 19251 ft 329 kts 86°
2026-05-05 16:44 44.18554 41.87475 19111 ft 329 kts 86°
2026-05-05 16:44 44.18657 41.90676 18697 ft 327 kts 90°
2026-05-05 16:45 44.18806 41.93836 18299 ft 327 kts 86°
2026-05-05 16:45 44.19049 41.96996 17850 ft 327 kts 85°
2026-05-05 16:45 44.19145 41.98120 17690 ft 328 kts 85°
2026-05-05 16:45 44.19363 42.00629 17415 ft 325 kts 85°
2026-05-05 16:46 44.19618 42.03651 17023 ft 324 kts 85°
2026-05-05 16:46 44.19864 42.06758 16635 ft 322 kts 86°
2026-05-05 16:46 44.20085 42.09764 16269 ft 321 kts 86°
2026-05-05 16:46 44.20300 42.12858 15887 ft 320 kts 86°
2026-05-05 16:47 44.20506 42.15958 15504 ft 319 kts 87°
2026-05-05 16:47 44.20686 42.18751 15162 ft 318 kts 87°
2026-05-05 16:47 44.20901 42.21206 14864 ft 316 kts 84°
2026-05-05 16:47 44.21151 42.24244 14485 ft 315 kts 86°
2026-05-05 16:48 44.21342 42.27284 14100 ft 315 kts 88°
2026-05-05 16:48 44.21509 42.30326 13718 ft 315 kts 88°
2026-05-05 16:48 44.21677 42.33372 13319 ft 314 kts 87°
2026-05-05 16:48 44.21854 42.36376 12944 ft 312 kts 86°
2026-05-05 16:49 44.21944 42.37983 12742 ft 308 kts 88°
2026-05-05 16:49 44.21931 42.41025 12357 ft 302 kts 90°
2026-05-05 16:49 44.22068 42.43959 11987 ft 302 kts 85°
2026-05-05 16:49 44.22306 42.46844 11595 ft 302 kts 84°
2026-05-05 16:50 44.22570 42.49754 11223 ft 300 kts 84°
2026-05-05 16:50 44.22819 42.52642 10830 ft 300 kts 84°
2026-05-05 16:50 44.22957 42.54716 10522 ft 296 kts 92°
2026-05-05 16:50 44.22663 42.57555 10096 ft 297 kts 97°
2026-05-05 16:51 44.22700 42.60476 9275 ft 308 kts 81°
2026-05-05 16:51 44.23008 42.63467 8550 ft 313 kts 82°
2026-05-05 16:51 44.23314 42.66401 8106 ft 298 kts 82°
2026-05-05 16:51 44.23607 42.69184 7701 ft 282 kts 82°
2026-05-05 16:52 44.23882 42.71800 7342 ft 269 kts 82°
2026-05-05 16:52 44.24127 42.74041 7033 ft 258 kts 79°
2026-05-05 16:52 44.24789 42.76289 6681 ft 248 kts 57°
2026-05-05 16:52 44.25978 42.77959 6325 ft 241 kts 36°
2026-05-05 16:53 44.27396 42.79118 5988 ft 232 kts 33°
2026-05-05 16:53 44.28752 42.80275 5656 ft 227 kts 35°
2026-05-05 16:53 44.30084 42.81449 5343 ft 227 kts 35°
2026-05-05 16:53 44.31416 42.82630 5035 ft 225 kts 36°
2026-05-05 16:54 44.32424 42.84032 4719 ft 218 kts 68°
2026-05-05 16:54 44.32559 42.85954 4495 ft 211 kts 108°
2026-05-05 16:54 44.31852 42.87733 4249 ft 213 kts 121°
2026-05-05 16:54 44.31143 42.89545 3955 ft 212 kts 120°
2026-05-05 16:55 44.30362 42.91285 3675 ft 212 kts 121°
2026-05-05 16:55 44.29638 42.92875 3409 ft 212 kts 121°
2026-05-05 16:55 44.28887 42.94540 3140 ft 212 kts 121°
2026-05-05 16:55 44.28104 42.96276 2856 ft 210 kts 121°
2026-05-05 16:56 44.27332 42.97991 2545 ft 201 kts 121°
2026-05-05 16:56 44.26617 42.99577 2243 ft 192 kts 121°
2026-05-05 16:56 44.25920 43.01121 1976 ft 180 kts 121°
2026-05-05 16:56 44.25289 43.02521 1693 ft 165 kts 121°
2026-05-05 16:57 44.24728 43.03765 1475 ft 157 kts 122°
2026-05-05 16:57 44.24169 43.05005 1317 ft 146 kts 122°
2026-05-05 16:57 44.23639 43.06183 1110 ft 142 kts 121°
2026-05-05 16:57 44.23150 43.07277 1049 ft 120 kts 122°
2026-05-05 16:58 44.22800 43.08023 1049 ft 74 kts 122°
2026-05-05 16:58 44.22606 43.08443 1055 ft 40 kts 124°
2026-05-05 16:58 44.22497 43.08665 1055 ft 32 kts 124°
2026-05-05 16:58 44.22434 43.08763 1054 ft 11 kts 152°
2026-05-05 16:59 44.22352 43.08849 1052 ft 20 kts 147°
2026-05-05 16:59 44.22232 43.08936 1053 ft 20 kts 152°
2026-05-05 16:59 44.22046 43.09075 1052 ft 41 kts 151°
2026-05-05 16:59 44.21919 43.09153 1051 ft 3 kts 210°
2026-05-05 17:00 44.21865 43.09062 1051 ft 18 kts 234°
2026-05-05 17:00 44.21823 43.08980 1051 ft 8 kts 207°
2026-05-05 17:00 44.21797 43.08959 1051 ft 0 kts 214°